Location: Kawakawa
(35.3830°S, 174.0670°E)
Time: 14:55:57
(UTC+13:00)

Altair - Pass Details

Date: 10 December 2019
Orbit: 1502 x 1682 km, 47.2° (Epoch: 22 January)

Event Time Altitude Azimuth Distance (km) Brightness Sun altitude
Rises 19:37:21 0° 251° (WSW) 4,950 12.6 9.0°
Reaches altitude 10° 19:42:28 10° 271° (W) 3,946 11.1 8.0°
Maximum altitude 19:47:26 15° 302° (WNW) 3,542 10.0 7.1°
Drops below altitude 10° 19:52:20 10° 332° (NNW) 3,889 9.7 6.2°
Sets 19:57:24 0° 353° (N) 4,834 9.9 5.2°
